Location: Trois-Rivi�res
(46.3500°N, 72.5500°W)
Time: 13:32:04
(UTC-04:00)

Vanguard 3 - All Passes

Search period start: 21 July 2018 00:00
Search period end: 31 July 2018 00:00
Orbit: 508 x 3264 km, 33.3° (Epoch: 21 July)

Date Brightness Start Highest point End Pass type
(mag) Time Alt. Az. Time Alt. Az. Time Alt. Az.
21 Jul - 15:41:46 10° S 15:53:18 21° SSE 16:02:15 10° ESE daylight
21 Jul - 17:53:07 10° SW 18:06:43 35° SSE 18:15:27 10° ESE daylight
21 Jul - 20:08:11 10° WSW 20:19:19 37° S 20:26:02 10° ESE daylight
21 Jul - 22:24:20 10° WSW 22:30:21 20° SSW 22:34:37 10° SSE visible
22 Jul - 14:29:55 10° S 14:38:11 15° SE 14:45:26 10° ESE daylight
22 Jul - 16:37:32 10° SSW 16:51:45 31° SSE 17:01:39 10° ESE daylight
22 Jul - 18:51:35 10° WSW 19:05:01 40° S 19:13:11 10° ESE daylight
22 Jul - 21:07:35 10° WSW 21:17:00 31° SSW 21:22:54 10° SE visible
23 Jul - 15:23:00 10° SSW 15:36:32 25° SSE 15:46:59 10° ESE daylight
23 Jul - 17:35:11 10° SW 17:50:14 39° S 17:59:54 10° ESE daylight
23 Jul - 19:50:47 10° WSW 20:03:06 39° S 20:10:30 10° SE daylight
23 Jul - 22:07:29 10° WSW 22:14:13 21° SSW 22:18:56 10° SSE visible
24 Jul - 14:10:14 10° S 14:21:17 18° SE 14:30:49 10° ESE daylight
24 Jul - 16:19:22 10° SW 16:35:02 35° SSE 16:46:03 10° ESE daylight
24 Jul - 18:33:56 10° WSW 18:48:38 43° S 18:57:36 10° ESE daylight
24 Jul - 20:50:23 10° W 21:00:47 32° SSW 21:07:17 10° SE visible
25 Jul - 13:02:22 10° SSE 13:06:11 11° SE 13:09:54 10° ESE daylight
25 Jul - 15:04:35 10° SSW 15:19:38 29° SSE 15:31:25 10° E daylight
25 Jul - 17:17:21 10° SW 17:33:37 43° S 17:44:14 10° ESE daylight
25 Jul - 19:33:19 10° WSW 19:46:46 41° SSW 19:54:52 10° SE daylight
25 Jul - 21:50:34 10° WSW 21:57:58 21° SW 22:03:09 10° S visible
26 Jul - 13:51:18 10° S 14:04:14 22° SE 14:15:31 10° ESE daylight
26 Jul - 16:01:24 10° SW 16:18:12 39° SSE 16:30:18 10° E daylight
26 Jul - 18:16:18 10° WSW 18:32:06 46° S 18:41:55 10° ESE daylight
26 Jul - 20:33:07 10° W 20:44:28 33° SSW 20:51:35 10° SE daylight
27 Jul - 12:40:59 10° SSE 12:49:05 14° SE 12:56:50 10° ESE daylight
27 Jul - 14:46:26 10° SSW 15:02:36 33° SSE 15:15:37 10° E daylight
27 Jul - 16:59:37 10° WSW 17:16:53 46° S 17:28:26 10° ESE daylight
27 Jul - 19:15:50 10° WSW 19:30:18 42° SSW 19:39:09 10° SE daylight
27 Jul - 21:33:34 10° W 21:41:36 21° SW 21:47:15 10° S visible
28 Jul - 13:32:53 10° S 13:47:04 25° SE 13:59:49 10° E daylight
28 Jul - 15:43:35 10° SW 16:01:14 43° SSE 16:14:24 10° E daylight
28 Jul - 17:58:42 10° WSW 18:15:27 48° S 18:26:08 10° ESE daylight
28 Jul - 20:15:47 10° W 20:28:01 33° SSW 20:35:47 10° SSE daylight
29 Jul - 12:21:35 10° SSE 12:31:51 17° SE 12:41:53 10° ESE daylight
29 Jul - 14:28:34 10° SSW 14:45:26 37° SSE 14:59:37 10° E daylight
29 Jul - 16:41:59 10° WSW 17:00:01 49° S 17:12:32 10° ESE daylight
29 Jul - 18:58:20 10° W 19:13:43 43° SSW 19:23:21 10° SE daylight
29 Jul - 21:16:31 10° W 21:25:07 21° SW 21:31:14 10° S visible
30 Jul - 13:14:50 10° SSW 13:29:47 29° SE 13:43:48 10° E daylight
30 Jul - 15:25:58 10° SW 15:44:10 46° SSE 15:58:21 10° E daylight
30 Jul - 17:41:09 10° WSW 17:58:41 49° S 18:10:15 10° ESE daylight
30 Jul - 19:58:25 10° W 20:11:25 33° SSW 20:19:53 10° SSE daylight
